Simultaneous Nadir Overpasses (SNOs) Predictions

Prediction of SNOs between NPP and TERRA Satellite Orbit:

Table of predicted SNOs for the next 14.0 days since TLE Epoch: 2/3/2024
Index Date (NPP) Time (NPP) Lat,Lon (NPP) SZA (NPP ) Date (TERRA) Time (TERRA) Lat,Lon (TERRA) SZA (TERRA ) Distance(km) Time Diff (sec)
1 02/04/2024 15:07:31 72.07, -53.69 88.50 02/04/2024 15:08:42 71.97, -52.84 88.34 31.32 71
2 02/04/2024 15:58:07 -71.66, 114.39 91.96 02/04/2024 15:58:11 -71.66, 114.30 91.96 3.10 4
3 02/04/2024 16:48:47 71.35, -77.75 87.70 02/04/2024 16:47:35 71.43, -78.41 87.83 24.99 72
4 02/07/2024 03:10:43 -72.22, -54.76 92.10 02/07/2024 03:11:53 -72.14, -53.39 92.27 47.65 70
5 02/07/2024 04:01:19 71.71, 113.50 87.34 02/07/2024 04:01:21 71.69, 113.51 87.31 2.67 2
6 02/07/2024 04:52:00 -71.56, -78.90 92.84 02/07/2024 04:50:46 -71.60, -78.97 92.78 5.57 74
7 02/09/2024 15:13:54 72.23, -55.58 87.12 02/09/2024 15:15:03 72.13, -54.22 86.94 47.36 69
8 02/09/2024 16:04:28 -71.71, 112.71 93.45 02/09/2024 16:04:34 -71.73, 112.74 93.44 2.03 6
9 02/09/2024 16:55:10 71.51, -79.62 86.33 02/09/2024 16:53:57 71.54, -79.90 86.38 10.38 73
10 02/12/2024 03:17:04 -72.34, -56.57 93.58 02/12/2024 03:18:13 -72.26, -54.83 93.76 59.44 69
11 02/12/2024 04:07:38 71.73, 111.89 85.76 02/12/2024 04:07:42 71.75, 111.95 85.77 3.02 4
12 02/12/2024 04:58:20 -71.62, -80.61 94.37 02/12/2024 04:57:08 -71.62, -80.61 94.36 0.65 72
13 02/14/2024 15:20:14 72.31, -57.32 85.57 02/14/2024 15:21:23 72.20, -55.76 85.36 54.33 69
14 02/14/2024 16:10:47 -71.74, 111.08 95.07 02/14/2024 16:10:55 -71.75, 111.12 95.07 1.83 8
15 02/14/2024 17:01:30 71.60, -81.35 84.77 02/14/2024 17:00:17 71.61, -81.45 84.80 3.54 73
16 02/17/2024 03:23:25 -72.43, -58.34 95.17 02/17/2024 03:24:33 -72.34, -56.34 95.38 67.91 68



Historial Predications of SNOs between NPP and TERRA
